To NAV CANADA Home Page Login to a new session Search on AWWS site Disclaimer Vers la page française équivalente Tips FAQ What's new on the site To the Forecasts and Observations / NOTAM section To "File a Flight Plan" website Publications and other links Update of the User's profile FIC Telephone Numbers My Weather Data Folder Route Weather Data Regional Weather Data Local Weather Data To the Forecasts and Observations / NOTAM section
Request Generated 03/19/2019 at 23:04:05 UTC . Weather information available at that time is displayed.

METAR/TAF

GOLDEN/BC    (show WxCam)

METAR CYGE 192300Z 07002KT 20SM SCT270 09/M02 A3023 RMK CI4 SLP264=
METAR CYGE 192200Z 12002KT 20SM SCT260 09/M02 A3024 RMK CI4 SLP271=
METAR CYGE 192100Z 13003KT 20SM FEW240 FEW260 09/M04 A3027 RMK CI1CI1 SLP280=

CYGE - No TAF is issued for this station

Your time UTC time
Weather data provided by Environment Canada and NAV CANADA